User: anonymous   Login
Location: Unspecified
(0.0000°N, 0.0000°E)
Time: 04:32:31
(UTC+00:00)
Language:

STARLINK-4679 - Orbit

View from above orbital plane
View from above orbital plane
View from above satellite
View from above satellite

Ground track
Ground track

The orbit is defined by the following mean orbital elements,

1 53782U          26145.66668980 +.00000000 +00000-0 +31618-2 0 00006
2 53782  53.2165 270.8475 0001127  36.3950 108.4999 15.78284898    09
Epoch (UTC): 25 May 2026 16:00:01
Eccentricity: 0.0001127
inclination: 53.2165°
perigee height: 335 km
apogee height: 336 km
right ascension of ascending node: 270.8475°
argument of perigee: 36.3950°
revolutions per day: 15.78284898
mean anomaly at epoch: 108.4999°

The dashed part of the orbit path shows where the satellite is in the earth's shadow,  

DLR